| time (UTC) | temp F | wind direction | speed MPH | gust MPH | rain 1hr in | rain 24hr in | rain mn in | humidity % | barometer mb |
| 20260902143530 | 81 | 34 | 0.0 | 4.0 | 0.00 | 0.00 | 0.00 | 43 | 1022.7 |
| 20260902143027 | 81 | 178 | 2.0 | 5.0 | 0.00 | 0.00 | 0.00 | 43 | 1022.6 |
| 20260902142527 | 81 | 98 | 1.0 | 6.0 | 0.00 | 0.00 | 0.00 | 43 | 1022.6 |
| 20260902142027 | 81 | 29 | 1.0 | 5.0 | 0.00 | 0.00 | 0.00 | 43 | 1022.6 |
| 20260902141535 | 82 | 338 | 2.0 | 9.0 | 0.00 | 0.00 | 0.00 | 41 | 1022.6 |
| 20260902141026 | 82 | 313 | 1.0 | 9.0 | 0.00 | 0.00 | 0.00 | 41 | 1022.5 |
| 20260902140526 | 82 | 126 | 3.0 | 9.0 | 0.00 | 0.00 | 0.00 | 40 | 1022.6 |
| 20260902140026 | 83 | 142 | 2.0 | 7.0 | 0.00 | 0.00 | 0.00 | 40 | 1022.6 |
| 20260902135525 | 82 | 91 | 0.0 | 7.0 | 0.00 | 0.00 | 0.00 | 41 | 1022.7 |
| 20260902135025 | 82 | 290 | 1.0 | 7.0 | 0.00 | 0.00 | 0.00 | 41 | 1022.7 |
| 20260902134535 | 81 | 351 | 1.0 | 4.0 | 0.00 | 0.00 | 0.00 | 41 | 1022.7 |
| 20260902134025 | 82 | 211 | 1.0 | 8.0 | 0.00 | 0.00 | 0.00 | 40 | 1022.7 |
| 20260902133525 | 82 | 331 | 2.0 | 7.0 | 0.00 | 0.00 | 0.00 | 39 | 1022.6 |
| 20260902133025 | 83 | 338 | 1.0 | 5.0 | 0.00 | 0.00 | 0.00 | 38 | 1022.7 |
| 20260902132529 | 82 | 135 | 2.0 | 5.0 | 0.00 | 0.00 | 0.00 | 37 | 1022.7 |
| 20260902132024 | 83 | 291 | 1.0 | 4.0 | 0.00 | 0.00 | 0.00 | 36 | 1022.8 |
| 20260902131522 | 82 | 177 | 1.0 | 6.0 | 0.00 | 0.00 | 0.00 | 38 | 1022.8 |
| 20260902131022 | 82 | 220 | 2.0 | 8.0 | 0.00 | 0.00 | 0.00 | 37 | 1022.8 |
| 20260902130525 | 82 | 301 | 1.0 | 8.0 | 0.00 | 0.00 | 0.00 | 36 | 1023.0 |
| 20260902130021 | 82 | 80 | 1.0 | 7.0 | 0.00 | 0.00 | 0.00 | 35 | 1023.0 |
| 20260902125521 | 82 | 209 | 3.0 | 7.0 | 0.00 | 0.00 | 0.00 | 36 | 1023.0 |
| 20260902125022 | 82 | 341 | 3.0 | 9.0 | 0.00 | 0.00 | 0.00 | 35 | 1023.0 |
| 20260902124521 | 82 | 188 | 1.0 | 9.0 | 0.00 | 0.00 | 0.00 | 36 | 1022.9 |
| 20260902124020 | 81 | 157 | 0.0 | 5.0 | 0.00 | 0.00 | 0.00 | 38 | 1023.0 |
| 20260902123520 | 81 | 191 | 1.0 | 5.0 | 0.00 | 0.00 | 0.00 | 39 | 1023.0 |
| 20260902123023 | 82 | 232 | 2.0 | 8.0 | 0.00 | 0.00 | 0.00 | 38 | 1023.1 |
| 20260902122522 | 82 | 309 | 2.0 | 5.0 | 0.00 | 0.00 | 0.00 | 38 | 1023.0 |
| 20260902122018 | 83 | 88 | 1.0 | 7.0 | 0.00 | 0.00 | 0.00 | 40 | 1023.1 |
| 20260902121517 | 82 | 113 | 1.0 | 7.0 | 0.00 | 0.00 | 0.00 | 38 | 1023.2 |
| 20260902121017 | 82 | 119 | 0.0 | 5.0 | 0.00 | 0.00 | 0.00 | 39 | 1023.1 |
| 20260902120517 | 82 | 135 | 2.0 | 5.0 | 0.00 | 0.00 | 0.00 | 39 | 1023.2 |
| 20260902120017 | 81 | 103 | 0.0 | 4.0 | 0.00 | 0.00 | 0.00 | 41 | 1023.1 |
| 20260902115521 | 81 | 321 | 1.0 | 9.0 | 0.00 | 0.00 | 0.00 | 41 | 1023.1 |
| 20260902115015 | 81 | 123 | 4.0 | 9.0 | 0.00 | 0.00 | 0.00 | 43 | 1023.0 |
| 20260902114516 | 81 | 185 | 2.0 | 6.0 | 0.00 | 0.00 | 0.00 | 43 | 1023.1 |
| 20260902114015 | 80 | 285 | 0.0 | 6.0 | 0.00 | 0.00 | 0.00 | 48 | 1023.2 |
| 20260902113514 | 80 | 275 | 2.0 | 6.0 | 0.00 | 0.00 | 0.00 | 45 | 1023.3 |
| 20260902113014 | 80 | 105 | 2.0 | 6.0 | 0.00 | 0.00 | 0.00 | 45 | 1023.4 |
| 20260902112515 | 81 | 258 | 1.0 | 6.0 | 0.00 | 0.00 | 0.00 | 44 | 1023.4 |
| 20260902112013 | 81 | 183 | 0.0 | 0.0 | 0.00 | 0.00 | 0.00 | 47 | 1023.4 |
| 20260902111512 | 80 | 183 | 0.0 | 2.0 | 0.00 | 0.00 | 0.00 | 46 | 1023.5 |
| 20260902111011 | 80 | 183 | 0.0 | 5.0 | 0.00 | 0.00 | 0.00 | 48 | 1023.6 |
| 20260902110511 | 79 | 144 | 0.0 | 5.0 | 0.00 | 0.00 | 0.00 | 48 | 1023.6 |
| 20260902110024 | 79 | 175 | 1.0 | 3.0 | 0.00 | 0.00 | 0.00 | 47 | 1023.7 |
| 20260902105508 | 79 | 163 | 0.0 | 2.0 | 0.00 | 0.00 | 0.00 | 48 | 1023.7 |
| 20260902105008 | 79 | 340 | 0.0 | 3.0 | 0.00 | 0.00 | 0.00 | 48 | 1023.7 |
| 20260902104524 | 78 | 188 | 0.0 | 4.0 | 0.00 | 0.00 | 0.00 | 47 | 1023.7 |
| 20260902104007 | 79 | 165 | 0.0 | 4.0 | 0.00 | 0.00 | 0.00 | 48 | 1023.8 |
| 20260902103506 | 78 | 132 | 0.0 | 1.0 | 0.00 | 0.00 | 0.00 | 49 | 1023.8 |
| 20260902103003 | 77 | 138 | 0.0 | 1.0 | 0.00 | 0.00 | 0.00 | 49 | 1023.8 |
| 20260902102502 | 77 | 134 | 0.0 | 4.0 | 0.00 | 0.00 | 0.00 | 50 | 1023.9 |
| 20260902102002 | 77 | 107 | 1.0 | 4.0 | 0.00 | 0.00 | 0.00 | 52 | 1023.9 |
| 20260902101605 | 77 | 119 | 1.0 | 4.0 | 0.00 | 0.00 | 0.00 | 51 | 1024.0 |
| 20260902101059 | 76 | 248 | 1.0 | 4.0 | 0.00 | 0.00 | 0.00 | 52 | 1024.0 |
| 20260902100558 | 75 | 74 | 0.0 | 6.0 | 0.00 | 0.00 | 0.00 | 53 | 1024.1 |
| 20260902100123 | 75 | 5 | 1.0 | 6.0 | 0.00 | 0.00 | 0.00 | 54 | 1024.1 |
| 20260902095600 | 75 | 177 | 0.0 | 6.0 | 0.00 | 0.00 | 0.00 | 54 | 1024.1 |
| 20260902095059 | 74 | 111 | 1.0 | 6.0 | 0.00 | 0.00 | 0.00 | 55 | 1024.0 |
| 20260902094554 | 74 | 121 | 0.0 | 7.0 | 0.00 | 0.00 | 0.00 | 56 | 1024.1 |
| 20260902094054 | 73 | 186 | 1.0 | 7.0 | 0.00 | 0.00 | 0.00 | 56 | 1024.1 |
| 20260902093552 | 73 | 121 | 0.0 | 4.0 | 0.00 | 0.00 | 0.00 | 58 | 1024.2 |
| 20260902093100 | 73 | 244 | 2.0 | 4.0 | 0.00 | 0.00 | 0.00 | 58 | 1024.2 |
| 20260902092551 | 73 | 167 | 2.0 | 5.0 | 0.00 | 0.00 | 0.00 | 59 | 1024.2 |
| 20260902092050 | 72 | 119 | 1.0 | 5.0 | 0.00 | 0.00 | 0.00 | 60 | 1024.3 |
| 20260902091550 | 72 | 126 | 2.0 | 4.0 | 0.00 | 0.00 | 0.00 | 60 | 1024.2 |
| 20260902091048 | 71 | 104 | 0.0 | 6.0 | 0.00 | 0.00 | 0.00 | 61 | 1024.2 |
| 20260902090546 | 71 | 134 | 1.0 | 6.0 | 0.00 | 0.00 | 0.00 | 62 | 1024.1 |
| 20260902090045 | 71 | 176 | 0.0 | 4.0 | 0.00 | 0.00 | 0.00 | 62 | 1024.1 |
| 20260902085542 | 70 | 176 | 1.0 | 4.0 | 0.00 | 0.00 | 0.00 | 63 | 1024.3 |
| 20260902085041 | 69 | 176 | 0.0 | 3.0 | 0.00 | 0.00 | 0.00 | 66 | 1024.2 |
| 20260902084540 | 68 | 195 | 0.0 | 2.0 | 0.00 | 0.00 | 0.00 | 67 | 1024.1 |
| 20260902084039 | 68 | 195 | 0.0 | 2.0 | 0.00 | 0.00 | 0.00 | 67 | 1024.2 |
| 20260902083537 | 67 | 195 | 0.0 | 2.0 | 0.00 | 0.00 | 0.00 | 67 | 1023.9 |
| 20260902083036 | 67 | 267 | 0.0 | 1.0 | 0.00 | 0.00 | 0.00 | 68 | 1023.9 |
| 20260902082535 | 66 | 267 | 0.0 | 0.0 | 0.00 | 0.00 | 0.00 | 67 | 1024.0 |
| 20260902082034 | 66 | 267 | 0.0 | 0.0 | 0.00 | 0.00 | 0.00 | 67 | 1023.9 |
| 20260902081541 | 66 | 267 | 0.0 | 2.0 | 0.00 | 0.00 | 0.00 | 67 | 1023.9 |
| 20260902081031 | 66 | 267 | 0.0 | 2.0 | 0.00 | 0.00 | 0.00 | 68 | 1023.8 |
| 20260902080530 | 66 | 247 | 0.0 | 1.0 | 0.00 | 0.00 | 0.00 | 68 | 1023.7 |
| 20260902080030 | 65 | 247 | 0.0 | 1.0 | 0.00 | 0.00 | 0.00 | 68 | 1023.6 |
| 20260902075528 | 65 | 247 | 0.0 | 2.0 | 0.00 | 0.00 | 0.00 | 69 | 1023.7 |
| 20260902075028 | 65 | 247 | 0.0 | 3.0 | 0.00 | 0.00 | 0.00 | 69 | 1023.7 |
| 20260902074527 | 64 | 247 | 0.0 | 3.0 | 0.00 | 0.00 | 0.00 | 70 | 1023.5 |
| 20260902074025 | 64 | 199 | 0.0 | 2.0 | 0.00 | 0.00 | 0.00 | 71 | 1023.5 |
| 20260902073525 | 63 | 227 | 0.0 | 2.0 | 0.00 | 0.00 | 0.00 | 72 | 1023.5 |
| 20260902073025 | 63 | 227 | 1.0 | 2.0 | 0.00 | 0.00 | 0.00 | 74 | 1023.6 |
| 20260902072526 | 62 | 278 | 0.0 | 2.0 | 0.00 | 0.00 | 0.00 | 74 | 1023.5 |
| 20260902072023 | 61 | 275 | 0.0 | 2.0 | 0.00 | 0.00 | 0.00 | 75 | 1023.6 |
| 20260902071532 | 61 | 277 | 0.0 | 2.0 | 0.00 | 0.00 | 0.00 | 77 | 1023.4 |
| 20260902071021 | 60 | 277 | 0.0 | 2.0 | 0.00 | 0.00 | 0.00 | 79 | 1023.5 |
| 20260902070524 | 60 | 277 | 0.0 | 2.0 | 0.00 | 0.00 | 0.00 | 80 | 1023.4 |
| 20260902070018 | 59 | 277 | 0.0 | 2.0 | 0.00 | 0.00 | 0.00 | 80 | 1023.5 |
| 20260902065518 | 59 | 277 | 0.0 | 2.0 | 0.00 | 0.00 | 0.00 | 81 | 1023.5 |
| 20260902065018 | 59 | 278 | 0.0 | 3.0 | 0.00 | 0.00 | 0.00 | 82 | 1023.5 |
| 20260902064517 | 58 | 279 | 0.0 | 3.0 | 0.00 | 0.00 | 0.00 | 82 | 1023.6 |
| 20260902064020 | 58 | 278 | 0.0 | 2.0 | 0.00 | 0.00 | 0.00 | 83 | 1023.5 |
| 20260902063519 | 58 | 278 | 0.0 | 2.0 | 0.00 | 0.00 | 0.00 | 83 | 1023.5 |
| 20260902063015 | 58 | 278 | 0.0 | 1.0 | 0.00 | 0.00 | 0.00 | 84 | 1023.5 |
| 20260902062514 | 57 | 278 | 0.0 | 3.0 | 0.00 | 0.00 | 0.00 | 84 | 1023.6 |
| 20260902062016 | 57 | 278 | 0.0 | 2.0 | 0.00 | 0.00 | 0.00 | 84 | 1023.5 |
| 20260902061515 | 57 | 278 | 0.0 | 2.0 | 0.00 | 0.00 | 0.00 | 85 | 1023.7 |
| 20260902061028 | 57 | 278 | 0.0 | 1.0 | 0.00 | 0.00 | 0.00 | 85 | 1023.6 |
| 20260902060514 | 57 | 278 | 0.0 | 1.0 | 0.00 | 0.00 | 0.00 | 85 | 1023.8 |
| 20260902060014 | 57 | 278 | 0.0 | 1.0 | 0.00 | 0.00 | 0.00 | 85 | 1023.7 |
| 20260902055514 | 57 | 278 | 0.0 | 1.0 | 0.00 | 0.00 | 0.00 | 85 | 1023.6 |
| 20260902055014 | 56 | 278 | 0.0 | 1.0 | 0.00 | 0.00 | 0.00 | 85 | 1023.6 |
| 20260902054513 | 56 | 278 | 0.0 | 0.0 | 0.00 | 0.00 | 0.00 | 85 | 1023.7 |
| 20260902054011 | 56 | 278 | 0.0 | 0.0 | 0.00 | 0.00 | 0.00 | 85 | 1023.7 |
| 20260902053510 | 56 | 278 | 0.0 | 0.0 | 0.00 | 0.00 | 0.00 | 84 | 1023.5 |
| 20260902053009 | 56 | 278 | 0.0 | 1.0 | 0.00 | 0.00 | 0.00 | 84 | 1023.5 |
| 20260902052507 | 56 | 278 | 0.0 | 1.0 | 0.00 | 0.00 | 0.00 | 84 | 1023.6 |
| 20260902052006 | 56 | 280 | 0.0 | 3.0 | 0.00 | 0.00 | 0.00 | 84 | 1023.4 |
| 20260902051508 | 56 | 280 | 0.0 | 3.0 | 0.00 | 0.00 | 0.00 | 84 | 1023.4 |
| 20260902051007 | 56 | 288 | 0.0 | 2.0 | 0.00 | 0.00 | 0.00 | 84 | 1023.4 |
| 20260902050508 | 56 | 236 | 0.0 | 0.0 | 0.00 | 0.00 | 0.00 | 84 | 1023.4 |
| 20260902050008 | 56 | 236 | 0.0 | 0.0 | 0.00 | 0.00 | 0.00 | 84 | 1023.4 |
| 20260902045502 | 56 | 236 | 0.0 | 0.0 | 0.00 | 0.00 | 0.00 | 83 | 1023.4 |
| 20260902045002 | 56 | 238 | 0.0 | 0.0 | 0.00 | 0.00 | 0.00 | 83 | 1023.3 |
| 20260902044502 | 56 | 238 | 0.0 | 0.0 | 0.00 | 0.00 | 0.00 | 83 | 1023.3 |
| 20260902044003 | 56 | 238 | 0.0 | 0.0 | 0.00 | 0.00 | 0.00 | 83 | 1023.2 |
| 20260902043503 | 56 | 238 | 0.0 | 0.0 | 0.00 | 0.00 | 0.00 | 84 | 1023.2 |
| 20260902043002 | 56 | 238 | 0.0 | 0.0 | 0.00 | 0.00 | 0.00 | 83 | 1023.2 |
| 20260902042502 | 56 | 232 | 0.0 | 0.0 | 0.00 | 0.00 | 0.00 | 83 | 1023.2 |
| 20260902042001 | 56 | 232 | 0.0 | 0.0 | 0.00 | 0.00 | 0.00 | 84 | 1023.2 |
| 20260902041600 | 56 | 232 | 0.0 | 0.0 | 0.00 | 0.00 | 0.00 | 84 | 1023.2 |
| 20260902041102 | 56 | 282 | 0.0 | 0.0 | 0.00 | 0.00 | 0.00 | 83 | 1023.1 |
| 20260902040603 | 56 | 281 | 0.0 | 0.0 | 0.00 | 0.00 | 0.00 | 83 | 1023.2 |
| 20260902040059 | 56 | 298 | 0.0 | 0.0 | 0.00 | 0.00 | 0.00 | 83 | 1023.1 |
| 20260902035602 | 56 | 310 | 0.0 | 0.0 | 0.00 | 0.00 | 0.00 | 83 | 1023.1 |
| 20260902035059 | 56 | 311 | 0.0 | 0.0 | 0.00 | 0.00 | 0.00 | 83 | 1023.1 |
| 20260902034559 | 57 | 311 | 0.0 | 0.0 | 0.00 | 0.00 | 0.00 | 83 | 1023.2 |
| 20260902034104 | 57 | 311 | 0.0 | 0.0 | 0.00 | 0.00 | 0.00 | 83 | 1023.2 |
| 20260902033602 | 57 | 311 | 0.0 | 1.0 | 0.00 | 0.00 | 0.00 | 83 | 1023.3 |
| 20260902033109 | 57 | 309 | 0.0 | 1.0 | 0.00 | 0.00 | 0.00 | 83 | 1023.2 |
| 20260902032558 | 57 | 297 | 0.0 | 1.0 | 0.00 | 0.00 | 0.00 | 83 | 1023.1 |
| 20260902032057 | 57 | 252 | 0.0 | 0.0 | 0.00 | 0.00 | 0.00 | 83 | 1023.2 |
| 20260902031556 | 57 | 252 | 0.0 | 0.0 | 0.00 | 0.00 | 0.00 | 83 | 1023.2 |
| 20260902031056 | 57 | 252 | 0.0 | 2.0 | 0.00 | 0.00 | 0.00 | 83 | 1023.3 |
| 20260902030556 | 57 | 252 | 0.0 | 2.0 | 0.00 | 0.00 | 0.00 | 83 | 1023.2 |
| 20260902030057 | 57 | 319 | 0.0 | 2.0 | 0.00 | 0.00 | 0.00 | 83 | 1023.2 |
| 20260902025556 | 57 | 319 | 0.0 | 0.0 | 0.00 | 0.00 | 0.00 | 82 | 1023.3 |
| 20260902025055 | 57 | 319 | 0.0 | 2.0 | 0.00 | 0.00 | 0.00 | 82 | 1023.3 |
| 20260902024606 | 57 | 319 | 0.0 | 0.0 | 0.00 | 0.00 | 0.00 | 82 | 1023.4 |
| 20260902024054 | 57 | 319 | 0.0 | 0.0 | 0.00 | 0.00 | 0.00 | 82 | 1023.4 |
| 20260902023554 | 57 | 319 | 0.0 | 0.0 | 0.00 | 0.00 | 0.00 | 82 | 1023.4 |
| 20260902023057 | 58 | 319 | 0.0 | 4.0 | 0.00 | 0.00 | 0.00 | 82 | 1023.3 |
| 20260902022555 | 58 | 319 | 1.0 | 4.0 | 0.00 | 0.00 | 0.00 | 82 | 1023.3 |
| 20260902022053 | 58 | 319 | 2.0 | 4.0 | 0.00 | 0.00 | 0.00 | 81 | 1023.3 |
| 20260902021553 | 58 | 302 | 0.0 | 3.0 | 0.00 | 0.00 | 0.00 | 81 | 1023.2 |
| 20260902021051 | 58 | 302 | 0.0 | 3.0 | 0.00 | 0.00 | 0.00 | 81 | 1023.2 |
| 20260902020551 | 58 | 302 | 0.0 | 3.0 | 0.00 | 0.00 | 0.00 | 81 | 1023.2 |
| 20260902020109 | 58 | 302 | 0.0 | 1.0 | 0.00 | 0.00 | 0.00 | 81 | 1023.3 |
| 20260902015552 | 58 | 305 | 0.0 | 2.0 | 0.00 | 0.00 | 0.00 | 81 | 1023.3 |
| 20260902015050 | 58 | 304 | 0.0 | 2.0 | 0.00 | 0.00 | 0.00 | 81 | 1023.3 |
| 20260902014558 | 58 | 304 | 0.0 | 0.0 | 0.00 | 0.00 | 0.00 | 80 | 1023.3 |
| 20260902014049 | 58 | 304 | 0.0 | 1.0 | 0.00 | 0.00 | 0.00 | 80 | 1023.3 |
| 20260902013551 | 58 | 304 | 0.0 | 3.0 | 0.00 | 0.00 | 0.00 | 80 | 1023.2 |
| 20260902013048 | 59 | 305 | 1.0 | 3.0 | 0.00 | 0.00 | 0.00 | 80 | 1023.3 |
| 20260902012548 | 59 | 295 | 0.0 | 3.0 | 0.00 | 0.00 | 0.00 | 80 | 1023.4 |
| 20260902012049 | 59 | 298 | 0.0 | 3.0 | 0.00 | 0.00 | 0.00 | 80 | 1023.3 |
| 20260902011546 | 59 | 298 | 0.0 | 3.0 | 0.00 | 0.00 | 0.00 | 80 | 1023.4 |
| 20260902011046 | 59 | 298 | 0.0 | 3.0 | 0.00 | 0.00 | 0.00 | 80 | 1023.4 |
| 20260902010546 | 59 | 298 | 0.0 | 3.0 | 0.00 | 0.00 | 0.00 | 79 | 1023.4 |
| 20260902010048 | 59 | 297 | 0.0 | 3.0 | 0.00 | 0.00 | 0.00 | 79 | 1023.4 |
| 20260902005548 | 59 | 296 | 0.0 | 2.0 | 0.00 | 0.00 | 0.00 | 79 | 1023.5 |
| 20260902005044 | 59 | 300 | 0.0 | 3.0 | 0.00 | 0.00 | 0.00 | 79 | 1023.5 |
| 20260902004544 | 59 | 300 | 1.0 | 4.0 | 0.00 | 0.00 | 0.00 | 79 | 1023.4 |
| 20260902004043 | 60 | 299 | 1.0 | 4.0 | 0.00 | 0.00 | 0.00 | 79 | 1023.5 |
| 20260902003542 | 60 | 275 | 0.0 | 2.0 | 0.00 | 0.00 | 0.00 | 78 | 1023.5 |
| 20260902003043 | 60 | 321 | 0.0 | 3.0 | 0.00 | 0.00 | 0.00 | 78 | 1023.6 |
| 20260902002541 | 60 | 319 | 1.0 | 3.0 | 0.00 | 0.00 | 0.00 | 78 | 1023.6 |
| 20260902002041 | 60 | 320 | 0.0 | 2.0 | 0.00 | 0.00 | 0.00 | 78 | 1023.6 |
| 20260902001541 | 60 | 320 | 0.0 | 2.0 | 0.00 | 0.00 | 0.00 | 78 | 1023.6 |
| 20260902001044 | 60 | 320 | 0.0 | 2.0 | 0.00 | 0.00 | 0.00 | 78 | 1023.6 |
| 20260902000542 | 60 | 320 | 0.0 | 3.0 | 0.00 | 0.00 | 0.00 | 78 | 1023.5 |
| 20260902000043 | 60 | 320 | 1.0 | 4.0 | 0.00 | 0.00 | 0.00 | 77 | 1023.7 |
| 20260901235539 | 61 | 320 | 1.0 | 4.0 | 0.00 | 0.00 | 0.00 | 77 | 1023.7 |
| 20260901235039 | 61 | 317 | 0.0 | 3.0 | 0.00 | 0.00 | 0.00 | 76 | 1023.5 |
| 20260901234554 | 61 | 317 | 0.0 | 3.0 | 0.00 | 0.00 | 0.00 | 76 | 1023.6 |
| 20260901234038 | 61 | 317 | 0.0 | 3.0 | 0.00 | 0.00 | 0.00 | 76 | 1023.6 |
| 20260901233537 | 61 | 317 | 0.0 | 4.0 | 0.00 | 0.00 | 0.00 | 76 | 1023.7 |
| 20260901233036 | 61 | 319 | 1.0 | 3.0 | 0.00 | 0.00 | 0.00 | 76 | 1023.6 |
| 20260901232536 | 61 | 319 | 1.0 | 3.0 | 0.00 | 0.00 | 0.00 | 76 | 1023.6 |
| 20260901232136 | 61 | 317 | 0.0 | 3.0 | 0.00 | 0.00 | 0.00 | 76 | 1023.5 |
| 20260901231536 | 62 | 316 | 1.0 | 4.0 | 0.00 | 0.00 | 0.00 | 75 | 1023.5 |
| 20260901231033 | 62 | 319 | 2.0 | 5.0 | 0.00 | 0.00 | 0.00 | 75 | 1023.6 |
| 20260901230533 | 62 | 322 | 2.0 | 4.0 | 0.00 | 0.00 | 0.00 | 75 | 1023.5 |
| 20260901230036 | 62 | 318 | 2.0 | 5.0 | 0.00 | 0.00 | 0.00 | 75 | 1023.6 |
| 20260901225536 | 62 | 307 | 2.0 | 6.0 | 0.00 | 0.00 | 0.00 | 75 | 1023.5 |
| 20260901225031 | 62 | 310 | 3.0 | 6.0 | 0.00 | 0.00 | 0.00 | 74 | 1023.6 |
| 20260901224535 | 62 | 325 | 2.0 | 5.0 | 0.00 | 0.00 | 0.00 | 74 | 1023.5 |
| 20260901224030 | 63 | 313 | 2.0 | 4.0 | 0.00 | 0.00 | 0.00 | 74 | 1023.4 |
| 20260901223530 | 63 | 319 | 2.0 | 5.0 | 0.00 | 0.00 | 0.00 | 73 | 1023.4 |
| 20260901223030 | 63 | 322 | 3.0 | 5.0 | 0.00 | 0.00 | 0.00 | 73 | 1023.5 |
| 20260901222530 | 63 | 314 | 2.0 | 3.0 | 0.00 | 0.00 | 0.00 | 73 | 1023.4 |
| 20260901222028 | 63 | 255 | 0.0 | 3.0 | 0.00 | 0.00 | 0.00 | 72 | 1023.4 |
| 20260901221557 | 63 | 267 | 1.0 | 3.0 | 0.00 | 0.00 | 0.00 | 72 | 1023.4 |
| 20260901221027 | 63 | 285 | 0.0 | 3.0 | 0.00 | 0.00 | 0.00 | 72 | 1023.4 |
| 20260901220525 | 64 | 282 | 0.0 | 0.0 | 0.00 | 0.00 | 0.00 | 72 | 1023.5 |
| 20260901220025 | 64 | 321 | 0.0 | 2.0 | 0.00 | 0.00 | 0.00 | 72 | 1023.5 |
| 20260901215525 | 64 | 250 | 0.0 | 4.0 | 0.00 | 0.00 | 0.00 | 72 | 1023.5 |
| 20260901215029 | 64 | 324 | 0.0 | 5.0 | 0.00 | 0.00 | 0.00 | 72 | 1023.4 |
| 20260901214524 | 64 | 337 | 2.0 | 5.0 | 0.00 | 0.00 | 0.00 | 72 | 1023.4 |
| 20260901214028 | 64 | 320 | 2.0 | 4.0 | 0.00 | 0.00 | 0.00 | 72 | 1023.4 |
| 20260901213525 | 64 | 319 | 1.0 | 3.0 | 0.00 | 0.00 | 0.00 | 72 | 1023.4 |
| 20260901213024 | 65 | 315 | 1.0 | 4.0 | 0.00 | 0.00 | 0.00 | 71 | 1023.4 |
| 20260901212524 | 65 | 315 | 0.0 | 4.0 | 0.00 | 0.00 | 0.00 | 71 | 1023.3 |
| 20260901212026 | 65 | 311 | 1.0 | 3.0 | 0.00 | 0.00 | 0.00 | 71 | 1023.4 |
| 20260901211532 | 65 | 315 | 0.0 | 2.0 | 0.00 | 0.00 | 0.00 | 70 | 1023.5 |
| 20260901211027 | 65 | 315 | 1.0 | 3.0 | 0.00 | 0.00 | 0.00 | 70 | 1023.4 |
| 20260901210524 | 65 | 315 | 0.0 | 3.0 | 0.00 | 0.00 | 0.00 | 69 | 1023.4 |
| 20260901210024 | 65 | 314 | 0.0 | 2.0 | 0.00 | 0.00 | 0.00 | 69 | 1023.4 |
| 20260901205524 | 66 | 315 | 0.0 | 1.0 | 0.00 | 0.00 | 0.00 | 69 | 1023.4 |
| 20260901205024 | 66 | 317 | 0.0 | 0.0 | 0.00 | 0.00 | 0.00 | 68 | 1023.4 |
| 20260901204532 | 66 | 316 | 0.0 | 0.0 | 0.00 | 0.00 | 0.00 | 68 | 1023.5 |
| 20260901204023 | 66 | 317 | 0.0 | 0.0 | 0.00 | 0.00 | 0.00 | 67 | 1023.5 |
| 20260901203523 | 67 | 317 | 0.0 | 0.0 | 0.00 | 0.00 | 0.00 | 67 | 1023.5 |
| 20260901203041 | 67 | 317 | 0.0 | 0.0 | 0.00 | 0.00 | 0.00 | 67 | 1023.5 |
| 20260901202523 | 67 | 317 | 0.0 | 0.0 | 0.00 | 0.00 | 0.00 | 66 | 1023.5 |
| 20260901202032 | 67 | 317 | 0.0 | 3.0 | 0.00 | 0.00 | 0.00 | 66 | 1023.4 |
| 20260901201534 | 68 | 317 | 0.0 | 3.0 | 0.00 | 0.00 | 0.00 | 66 | 1023.4 |
| 20260901201022 | 68 | 316 | 0.0 | 1.0 | 0.00 | 0.00 | 0.00 | 65 | 1023.5 |
| 20260901200521 | 68 | 316 | 0.0 | 3.0 | 0.00 | 0.00 | 0.00 | 65 | 1023.4 |
| 20260901200027 | 68 | 316 | 1.0 | 3.0 | 0.00 | 0.00 | 0.00 | 65 | 1023.4 |
| 20260901195522 | 68 | 316 | 0.0 | 3.0 | 0.00 | 0.00 | 0.00 | 65 | 1023.4 |
| 20260901195024 | 68 | 316 | 1.0 | 3.0 | 0.00 | 0.00 | 0.00 | 65 | 1023.3 |
| 20260901194522 | 68 | 315 | 0.0 | 4.0 | 0.00 | 0.00 | 0.00 | 64 | 1023.2 |
| 20260901194028 | 69 | 341 | 2.0 | 4.0 | 0.00 | 0.00 | 0.00 | 63 | 1023.3 |
| 20260901193521 | 69 | 54 | 0.0 | 1.0 | 0.00 | 0.00 | 0.00 | 63 | 1023.3 |
| 20260901193022 | 69 | 54 | 0.0 | 1.0 | 0.00 | 0.00 | 0.00 | 62 | 1023.3 |
| 20260901192524 | 70 | 54 | 0.0 | 1.0 | 0.00 | 0.00 | 0.00 | 61 | 1023.2 |
| 20260901192029 | 70 | 54 | 0.0 | 1.0 | 0.00 | 0.00 | 0.00 | 61 | 1023.2 |
| 20260901191522 | 70 | 54 | 0.0 | 1.0 | 0.00 | 0.00 | 0.00 | 60 | 1023.2 |
| 20260901191020 | 71 | 54 | 0.0 | 0.0 | 0.00 | 0.00 | 0.00 | 59 | 1023.2 |
| 20260901190520 | 71 | 54 | 0.0 | 0.0 | 0.00 | 0.00 | 0.00 | 58 | 1023.1 |
| 20260901190021 | 71 | 54 | 0.0 | 2.0 | 0.00 | 0.00 | 0.00 | 57 | 1023.1 |
| 20260901185520 | 71 | 54 | 0.0 | 2.0 | 0.00 | 0.00 | 0.00 | 57 | 1023.0 |
| 20260901185020 | 72 | 31 | 0.0 | 1.0 | 0.00 | 0.00 | 0.00 | 57 | 1023.0 |
| 20260901184520 | 72 | 31 | 0.0 | 1.0 | 0.00 | 0.00 | 0.00 | 56 | 1022.9 |
| 20260901184020 | 72 | 31 | 0.0 | 1.0 | 0.00 | 0.00 | 0.00 | 56 | 1022.9 |
| 20260901183520 | 73 | 31 | 0.0 | 0.0 | 0.00 | 0.00 | 0.00 | 55 | 1022.8 |
| 20260901183020 | 73 | 31 | 0.0 | 0.0 | 0.00 | 0.00 | 0.00 | 55 | 1022.7 |
| 20260901182520 | 74 | 31 | 0.0 | 1.0 | 0.00 | 0.00 | 0.00 | 54 | 1022.7 |
| 20260901182024 | 74 | 31 | 0.0 | 1.0 | 0.00 | 0.00 | 0.00 | 52 | 1022.7 |
| 20260901181521 | 75 | 31 | 0.0 | 0.0 | 0.00 | 0.00 | 0.00 | 52 | 1022.6 |
| 20260901181018 | 75 | 31 | 0.0 | 0.0 | 0.00 | 0.00 | 0.00 | 50 | 1022.6 |
| 20260901180519 | 75 | 31 | 0.0 | 1.0 | 0.00 | 0.00 | 0.00 | 50 | 1022.5 |
| 20260901180019 | 76 | 31 | 0.0 | 1.0 | 0.00 | 0.00 | 0.00 | 50 | 1022.4 |
| 20260901175520 | 76 | 30 | 0.0 | 0.0 | 0.00 | 0.00 | 0.00 | 49 | 1022.4 |
| 20260901175019 | 76 | 31 | 0.0 | 2.0 | 0.00 | 0.00 | 0.00 | 48 | 1022.4 |
| 20260901174518 | 76 | 31 | 0.0 | 2.0 | 0.00 | 0.00 | 0.00 | 48 | 1022.4 |
| 20260901174022 | 76 | 31 | 0.0 | 2.0 | 0.00 | 0.00 | 0.00 | 47 | 1022.5 |
| 20260901173518 | 76 | 31 | 0.0 | 2.0 | 0.00 | 0.00 | 0.00 | 46 | 1022.4 |
| 20260901173018 | 76 | 30 | 0.0 | 3.0 | 0.00 | 0.00 | 0.00 | 45 | 1022.3 |
| 20260901172518 | 77 | 30 | 1.0 | 3.0 | 0.00 | 0.00 | 0.00 | 44 | 1022.3 |
| 20260901172018 | 77 | 49 | 0.0 | 3.0 | 0.00 | 0.00 | 0.00 | 44 | 1022.3 |
| 20260901171517 | 77 | 44 | 0.0 | 4.0 | 0.00 | 0.00 | 0.00 | 44 | 1022.3 |
| 20260901171017 | 77 | 318 | 1.0 | 4.0 | 0.00 | 0.00 | 0.00 | 43 | 1022.3 |
| 20260901170520 | 77 | 221 | 0.0 | 2.0 | 0.00 | 0.00 | 0.00 | 43 | 1022.2 |
| 20260901170017 | 77 | 227 | 0.0 | 4.0 | 0.00 | 0.00 | 0.00 | 43 | 1022.3 |
| 20260901165516 | 78 | 225 | 1.0 | 4.0 | 0.00 | 0.00 | 0.00 | 43 | 1022.4 |
| 20260901165016 | 78 | 302 | 2.0 | 4.0 | 0.00 | 0.00 | 0.00 | 42 | 1022.4 |
| 20260901164516 | 78 | 327 | 0.0 | 4.0 | 0.00 | 0.00 | 0.00 | 42 | 1022.4 |
| 20260901164016 | 78 | 323 | 0.0 | 5.0 | 0.00 | 0.00 | 0.00 | 42 | 1022.5 |
| 20260901163515 | 78 | 313 | 0.0 | 5.0 | 0.00 | 0.00 | 0.00 | 41 | 1022.5 |
| 20260901163015 | 78 | 315 | 0.0 | 0.0 | 0.00 | 0.00 | 0.00 | 42 | 1022.5 |
| 20260901162515 | 78 | 310 | 0.0 | 1.0 | 0.00 | 0.00 | 0.00 | 42 | 1022.5 |
| 20260901162015 | 78 | 50 | 0.0 | 1.0 | 0.00 | 0.00 | 0.00 | 40 | 1022.5 |
| 20260901161525 | 78 | 87 | 0.0 | 2.0 | 0.00 | 0.00 | 0.00 | 40 | 1022.5 |
| 20260901161014 | 78 | 91 | 0.0 | 3.0 | 0.00 | 0.00 | 0.00 | 39 | 1022.5 |
| 20260901160514 | 78 | 92 | 1.0 | 6.0 | 0.00 | 0.00 | 0.00 | 39 | 1022.6 |
| 20260901160029 | 78 | 229 | 1.0 | 6.0 | 0.00 | 0.00 | 0.00 | 39 | 1022.6 |
| 20260901155513 | 78 | 30 | 0.0 | 4.0 | 0.00 | 0.00 | 0.00 | 40 | 1022.6 |
| 20260901155018 | 78 | 355 | 2.0 | 4.0 | 0.00 | 0.00 | 0.00 | 40 | 1022.6 |
| 20260901154513 | 79 | 355 | 1.0 | 3.0 | 0.00 | 0.00 | 0.00 | 40 | 1022.7 |
| 20260901154013 | 79 | 290 | 1.0 | 4.0 | 0.00 | 0.00 | 0.00 | 41 | 1022.7 |
| 20260901153513 | 79 | 196 | 1.0 | 4.0 | 0.00 | 0.00 | 0.00 | 40 | 1022.6 |
| 20260901153013 | 79 | 263 | 1.0 | 5.0 | 0.00 | 0.00 | 0.00 | 41 | 1022.7 |
| 20260901152516 | 79 | 355 | 1.0 | 5.0 | 0.00 | 0.00 | 0.00 | 40 | 1022.7 |
| 20260901152012 | 79 | 122 | 0.0 | 3.0 | 0.00 | 0.00 | 0.00 | 40 | 1022.6 |
| 20260901151512 | 79 | 129 | 0.0 | 3.0 | 0.00 | 0.00 | 0.00 | 41 | 1022.6 |
| 20260901151013 | 79 | 141 | 0.0 | 3.0 | 0.00 | 0.00 | 0.00 | 42 | 1022.5 |
| 20260901150511 | 79 | 142 | 0.0 | 5.0 | 0.00 | 0.00 | 0.00 | 41 | 1022.6 |
| 20260901150011 | 79 | 338 | 2.0 | 7.0 | 0.00 | 0.00 | 0.00 | 41 | 1022.7 |
| 20260901145511 | 79 | 225 | 1.0 | 3.0 | 0.00 | 0.00 | 0.00 | 42 | 1022.8 |
| 20260901145010 | 79 | 277 | 1.0 | 8.0 | 0.00 | 0.00 | 0.00 | 42 | 1022.8 |
| 20260901144512 | 79 | 224 | 0.0 | 7.0 | 0.00 | 0.00 | 0.00 | 43 | 1022.8 |
| 20260901144010 | 79 | 31 | 0.0 | 4.0 | 0.00 | 0.00 | 0.00 | 42 | 1022.6 |